GW2454 Weather Reports


Display with metric or nautical units.
time (UTC)temp
F
wind
direction
speed
MPH
gust
MPH
rain 1hr
in
rain 24hr
in
rain mn
in
humidity
%
barometer
mb
20260509223032 89 172 0.0 1.0 0.00 0.00 0.00 63 1004.8
20260509222528 89 134 0.0 0.0 0.00 0.00 0.00 64 1004.8
20260509222024 90 127 0.0 1.0 0.00 0.00 0.00 63 1004.8
20260509221520 90 79 0.0 0.0 0.00 0.00 0.00 64 1004.6
20260509221016 89 219 1.0 2.0 0.00 0.00 0.00 64 1004.7
20260509220512 89 216 2.0 2.0 0.00 0.00 0.00 64 1004.8
20260509220009 89 205 1.0 2.0 0.00 0.00 0.00 64 1004.6
20260509215504 89 71 1.0 1.0 0.00 0.00 0.00 63 1004.6
20260509215001 89 122 0.0 0.0 0.00 0.00 0.00 63 1004.6
20260509214458 89 206 1.0 1.0 0.00 0.00 0.00 63 1004.9
20260509213955 90 109 0.0 1.0 0.00 0.00 0.00 63 1004.6
20260509213451 89 94 0.0 0.0 0.00 0.00 0.00 63 1004.9
20260509212948 89 74 2.0 2.0 0.00 0.00 0.00 64 1004.6
20260509212446 90 75 0.0 0.0 0.00 0.00 0.00 62 1004.6
20260509211942 91 56 1.0 1.0 0.00 0.00 0.00 61 1004.8
20260509211437 0 0.0 0.0 0.00 0.00 0.00 1004.7
20260509210934 0 0.0 0.0 0.00 0.00 0.00 1004.8
20260509210431 0 0.0 0.0 0.00 0.00 0.00 1005.0
20260509205926 0 0.0 0.0 0.00 0.00 0.00 1005.0
20260509205421 93 194 1.0 1.0 0.00 0.00 0.00 60 1005.1
20260509204917 93 194 1.0 1.0 0.00 0.00 0.00 60 1005.1
20260509204414 92 313 2.0 2.0 0.00 0.00 0.00 59 1005.2
20260509203911 92 37 2.0 2.0 0.00 0.00 0.00 61 1005.1
20260509203407 91 74 1.0 1.0 0.00 0.00 0.00 62 1005.3
20260509202904 90 218 3.0 3.0 0.00 0.00 0.00 64 1005.4
20260509202400 89 252 1.0 1.0 0.00 0.00 0.00 63 1005.3
20260509201855 89 252 1.0 1.0 0.00 0.00 0.00 63 1005.4
20260509201350 0 0.0 0.0 0.00 0.00 0.00 1005.5
20260509200848 0 0.0 0.0 0.00 0.00 0.00 1005.8
20260509200342 90 226 3.0 5.0 0.00 0.00 0.00 64 1005.8
20260509195840 90 226 3.0 5.0 0.00 0.00 0.00 64 1005.8
20260509195340 90 223 1.0 1.0 0.00 0.00 0.00 66 1005.6
20260509194839 89 199 0.0 1.0 0.00 0.00 0.00 66 1005.9
20260509194336 88 208 2.0 2.0 0.00 0.00 0.00 68 1006.0
20260509193832 89 166 0.0 1.0 0.00 0.00 0.00 69 1006.1
20260509193327 87 287 1.0 1.0 0.00 0.00 0.00 71 1005.9
20260509192823 87 287 1.0 1.0 0.00 0.00 0.00 71 1005.9
20260509192319 88 220 1.0 2.0 0.00 0.00 0.00 70 1005.9
20260509191815 89 158 1.0 1.0 0.00 0.00 0.00 70 1006.4
20260509191311 88 192 1.0 1.0 0.00 0.00 0.00 71 1006.4
20260509190806 87 221 2.0 2.0 0.00 0.00 0.00 71 1006.3
20260509190304 86 217 0.0 1.0 0.00 0.00 0.00 73 1006.3
20260509185801 86 198 1.0 1.0 0.00 0.00 0.00 73 1006.6
20260509185257 85 337 0.0 0.0 0.00 0.00 0.00 74 1006.4
20260509184755 86 193 1.0 1.0 0.00 0.00 0.00 73 1006.5
20260509184252 86 244 1.0 2.0 0.00 0.00 0.00 73 1006.7
20260509183748 86 145 1.0 1.0 0.00 0.00 0.00 73 1006.8
20260509183244 85 235 1.0 1.0 0.00 0.00 0.00 73 1006.9
20260509182739 86 222 1.0 1.0 0.00 0.00 0.00 72 1006.9
20260509182237 85 343 2.0 2.0 0.00 0.00 0.00 72 1006.9
20260509181734 85 249 1.0 1.0 0.00 0.00 0.00 72 1007.0
20260509181232 85 215 2.0 2.0 0.00 0.00 0.00 74 1007.0
20260509180729 85 252 3.0 3.0 0.00 0.00 0.00 74 1007.0
20260509180225 85 218 1.0 1.0 0.00 0.00 0.00 73 1007.3
20260509175721 85 205 4.0 5.0 0.00 0.00 0.00 72 1007.2
20260509175218 85 198 1.0 1.0 0.00 0.00 0.00 74 1007.4
20260509174714 85 284 1.0 2.0 0.00 0.00 0.00 74 1007.3
20260509174209 86 258 2.0 2.0 0.00 0.00 0.00 72 1007.5
20260509173706 85 268 1.0 2.0 0.00 0.00 0.00 74 1007.5
20260509173201 85 347 0.0 1.0 0.00 0.00 0.00 75 1007.5
20260509172658 86 331 2.0 3.0 0.00 0.00 0.00 72 1007.6
20260509172154 85 155 0.0 1.0 0.00 0.00 0.00 74 1007.6
20260509171650 85 203 2.0 2.0 0.00 0.00 0.00 76 1007.5
20260509171146 83 332 0.0 1.0 0.00 0.00 0.00 78 1007.3
20260509170643 83 334 2.0 5.0 0.00 0.00 0.00 78 1007.1
20260509170139 83 136 0.0 1.0 0.00 0.00 0.00 80 1007.2
20260509165637 82 182 2.0 2.0 0.00 0.00 0.00 80 1007.1
20260509165133 83 185 3.0 3.0 0.00 0.00 0.00 80 1007.1
20260509164629 83 212 1.0 1.0 0.00 0.00 0.00 81 1007.1
20260509164125 82 214 3.0 3.0 0.00 0.00 0.00 81 1007.2
20260509163623 80 65 0.0 1.0 0.00 0.00 0.00 84 1007.3
20260509163118 80 65 0.0 1.0 0.00 0.00 0.00 84 1007.4
20260509162616 80 64 0.0 0.0 0.00 0.00 0.00 84 1007.6
20260509162112 80 64 0.0 0.0 0.00 0.00 0.00 84 1007.6
20260509161608 80 60 0.0 1.0 0.00 0.00 0.00 84 1007.5
20260509161109 80 210 1.0 1.0 0.00 0.00 0.00 85 1007.6
20260509160605 80 213 1.0 1.0 0.00 0.00 0.00 85 1007.4
20260509160100 80 225 1.0 1.0 0.00 0.00 0.00 85 1007.6
20260509155557 79 211 0.0 1.0 0.00 0.00 0.00 86 1007.8
20260509155053 80 222 1.0 1.0 0.00 0.00 0.00 86 1007.9
20260509154549 79 215 0.0 0.0 0.00 0.00 0.00 87 1007.8
20260509154047 79 222 0.0 1.0 0.00 0.00 0.00 87 1007.7
20260509153543 79 225 1.0 1.0 0.00 0.00 0.00 87 1008.0
20260509153040 79 121 0.0 0.0 0.00 0.00 0.00 89 1008.1
20260509152536 78 211 1.0 1.0 0.00 0.00 0.00 90 1007.9
20260509152034 78 278 0.0 0.0 0.00 0.00 0.00 91 1008.0
20260509151530 77 126 0.0 0.0 0.00 0.00 0.00 91 1007.9
20260509151028 77 139 0.0 0.0 0.00 0.00 0.00 93 1007.9
20260509150525 77 186 1.0 1.0 0.00 0.00 0.00 93 1007.8
20260509150023 77 51 0.0 1.0 0.00 0.00 0.00 94 1007.6
20260509145518 77 62 0.0 0.0 0.00 0.00 0.00 94 1007.5
20260509145013 77 102 0.0 0.0 0.00 0.00 0.00 95 1007.6
20260509144511 77 161 0.0 0.0 0.00 0.00 0.00 95 1007.7
20260509144008 76 105 0.0 0.0 0.00 0.00 0.00 95 1007.4
20260509143505 76 111 1.0 1.0 0.00 0.00 0.00 95 1007.2
20260509143003 76 104 0.0 0.0 0.00 0.00 0.00 96 1007.3
20260509142458 76 84 0.0 0.0 0.00 0.00 0.00 96 1007.2
20260509141953 75 71 0.0 0.0 0.00 0.00 0.00 96 1007.1
20260509141450 75 83 0.0 0.0 0.00 0.00 0.00 96 1007.2
20260509140947 75 117 0.0 0.0 0.00 0.00 0.00 96 1007.2
20260509140443 75 94 0.0 0.0 0.00 0.00 0.00 96 1006.8
20260509135942 75 122 0.0 0.0 0.00 0.00 0.00 96 1007.1
20260509135439 75 158 0.0 0.0 0.00 0.00 0.00 96 1007.1
20260509134936 75 60 0.0 0.0 0.00 0.00 0.00 96 1007.1
20260509134434 75 70 0.0 0.0 0.00 0.00 0.00 96 1007.3
20260509133931 75 72 0.0 0.0 0.00 0.00 0.00 97 1007.3
20260509133427 75 71 0.0 1.0 0.00 0.00 0.00 96 1007.6
20260509132926 75 101 0.0 0.0 0.00 0.00 0.00 97 1007.7
20260509132423 75 90 1.0 1.0 0.00 0.00 0.00 97 1007.5
20260509131920 74 220 0.0 0.0 0.00 0.00 0.00 97 1007.7
20260509131418 74 185 1.0 1.0 0.00 0.00 0.00 97 1007.7
20260509130914 74 135 0.0 0.0 0.00 0.00 0.00 97 1007.9
20260509130409 74 189 0.0 0.0 0.00 0.00 0.00 97 1008.1
20260509125906 74 212 0.0 0.0 0.00 0.00 0.00 97 1007.4
20260509125403 74 150 0.0 0.0 0.00 0.00 0.00 97 1007.5
20260509124859 74 144 0.0 0.0 0.00 0.00 0.00 97 1007.6
20260509124356 0 0.0 0.0 0.00 0.00 0.00 1007.7
20260509123854 0 0.0 0.0 0.00 0.00 0.00 1007.7
20260509123351 0 0.0 0.0 0.00 0.00 0.00 1007.7
20260509122847 0 0.0 0.0 0.00 0.00 0.00 1007.6
20260509122344 0 0.0 0.0 0.00 0.00 0.00 1007.7
20260509121840 0 0.0 0.0 0.00 0.00 0.00 1007.6
20260509121337 0 0.0 0.0 0.00 0.00 0.00 1007.4
20260509120836 0 0.0 0.0 0.00 0.00 0.00 1007.4
20260509120333 0 0.0 0.0 0.00 0.00 0.00 1006.9
20260509115831 0 0.0 0.0 0.00 0.00 0.00 1006.8
20260509115328 0 0.0 0.0 0.00 0.00 0.00 1006.5
20260509114826 0 0.0 0.0 0.00 0.00 0.00 1007.0
20260509114325 0 0.0 0.0 0.00 0.00 0.00 1007.0
20260509113824 0 0.0 0.0 0.00 0.00 0.00 1007.1
20260509113320 0 0.0 0.0 0.00 0.00 0.00 1006.9
20260509112816 0 0.0 0.0 0.00 0.00 0.00 1006.8
20260509112314 0 0.0 0.0 0.00 0.00 0.00 1006.8
20260509111811 0 0.0 0.0 0.00 0.00 0.00 1007.0
20260509111308 0 0.0 0.0 0.00 0.00 0.00 1007.0
20260509110805 0 0.0 0.0 0.00 0.00 0.00 1007.5
20260509110301 0 0.0 0.0 0.00 0.00 0.00 1007.4
20260509105800 0 0.0 0.0 0.00 0.00 0.00 1007.4
20260509105258 0 0.0 0.0 0.00 0.00 0.00 1007.3
20260509104754 0 0.0 0.0 0.00 0.00 0.00 1007.2
20260509104250 0 0.0 0.0 0.00 0.00 0.00 1007.5
20260509103749 0 0.0 0.0 0.00 0.00 0.00 1007.3
20260509103246 0 0.0 0.0 0.00 0.00 0.00 1007.5
20260509102744 0 0.0 0.0 0.00 0.00 0.00 1007.2
20260509102241 0 0.0 0.0 0.00 0.00 0.00 1007.0
20260509101737 0 0.0 0.0 0.00 0.00 0.00 1007.2
20260509101233 0 0.0 0.0 0.00 0.00 0.00 1006.8
20260509100731 0 0.0 0.0 0.00 0.00 0.00 1006.4
20260509100228 0 0.0 0.0 0.00 0.00 0.00 1006.2
20260509095724 0 0.0 0.0 0.00 0.00 0.00 1006.2
20260509095222 0 0.0 0.0 0.00 0.00 0.00 1006.4
20260509094719 0 0.0 0.0 0.00 0.00 0.00 1006.3
20260509094216 0 0.0 0.0 0.00 0.00 0.00 1006.3
20260509093714 0 0.0 0.0 0.00 0.00 0.00 1006.5
20260509093211 0 0.0 0.0 0.00 0.00 0.00 1006.4
20260509092709 0 0.0 0.0 0.00 0.00 0.00 1006.7
20260509092207 0 0.0 0.0 0.00 0.00 0.00 1006.7
20260509091705 0 0.0 0.0 0.00 0.00 0.00 1006.9
20260509091200 0 0.0 0.0 0.00 0.00 0.00 1006.9
20260509090658 0 0.0 0.0 0.00 0.00 0.00 1007.0
20260509090155 0 0.0 0.0 0.00 0.00 0.00 1006.8
20260509085653 0 0.0 0.0 0.00 0.00 0.00 1007.0
20260509085149 0 0.0 0.0 0.00 0.00 0.00 1007.0
20260509084646 0 0.0 0.0 0.00 0.00 0.00 1007.4
20260509084143 0 0.0 0.0 0.00 0.00 0.00 1007.1
20260509083641 0 0.0 0.0 0.00 0.00 0.00 1006.9
20260509083137 0 0.0 0.0 0.00 0.00 0.00 1006.9
20260509082634 0 0.0 0.0 0.00 0.00 0.00 1007.1
20260509082131 0 0.0 0.0 0.00 0.00 0.00 1007.1
20260509081628 0 0.0 0.0 0.00 0.00 0.00 1006.9
20260509081125 0 0.0 0.0 0.00 0.00 0.00 1006.8
20260509080623 0 0.0 0.0 0.00 0.00 0.00 1006.7
20260509080121 0 0.0 0.0 0.00 0.00 0.00 1006.9
20260509075619 0 0.0 0.0 0.00 0.00 0.00 1006.6
20260509075116 0 0.0 0.0 0.00 0.00 0.00 1006.8
20260509074613 0 0.0 0.0 0.00 0.00 0.00 1006.7
20260509074109 0 0.0 0.0 0.00 0.00 0.00 1006.6
20260509073606 0 0.0 0.0 0.00 0.00 0.00 1006.8
20260509073102 0 0.0 0.0 0.00 0.00 0.00 1006.8
20260509072559 0 0.0 0.0 0.00 0.00 0.00 1006.9
20260509072056 0 0.0 0.0 0.00 0.00 0.00 1006.9
20260509071553 0 0.0 0.0 0.00 0.00 0.00 1006.9
20260509071050 0 0.0 0.0 0.00 0.00 0.00 1006.7
20260509070547 0 0.0 0.0 0.00 0.00 0.00 1006.8
20260509070038 0 0.0 0.0 0.00 0.00 0.00 1006.8
20260509065533 0 0.0 0.0 0.00 0.00 0.00 1006.8
20260509065030 0 0.0 0.0 0.00 0.00 0.00 1007.1
20260509064527 0 0.0 0.0 0.00 0.00 0.00 1007.2
20260509064025 0 0.0 0.0 0.00 0.00 0.00 1007.1
20260509063520 0 0.0 0.0 0.00 0.00 0.00 1007.1
20260509063018 0 0.0 0.0 0.00 0.00 0.00 1007.0
20260509062515 0 0.0 0.0 0.00 0.00 0.00 1007.1
20260509062012 0 0.0 0.0 0.00 0.00 0.00 1007.2
20260509061509 0 0.0 0.0 0.00 0.00 0.00 1007.5
20260509061007 0 0.0 0.0 0.00 0.00 0.00 1007.6
20260509060504 0 0.0 0.0 0.00 0.00 0.00 1007.5
20260509055959 0 0.0 0.0 0.00 0.00 0.00 1007.4
20260509055455 0 0.0 0.0 0.00 0.00 0.00 1007.4
20260509054951 0 0.0 0.0 0.00 0.00 0.00 1007.6
20260509054448 0 0.0 0.0 0.00 0.00 0.00 1007.4
20260509053946 0 0.0 0.0 0.00 0.00 0.00 1007.4
20260509053444 0 0.0 0.0 0.00 0.00 0.00 1007.4
20260509052941 0 0.0 0.0 0.00 0.00 0.00 1007.5
20260509052439 0 0.0 0.0 0.00 0.00 0.00 1007.4
20260509051936 0 0.0 0.0 0.00 0.00 0.00 1007.3
20260509051434 0 0.0 0.0 0.00 0.00 0.00 1007.4
20260509050931 0 0.0 0.0 0.00 0.00 0.00 1007.5
20260509050427 0 0.0 0.0 0.00 0.00 0.00 1007.4
20260509045924 0 0.0 0.0 0.00 0.00 0.00 1007.6
20260509045421 0 0.0 0.0 0.00 0.00 0.00 1007.3
20260509044918 0 0.0 0.0 0.00 0.00 0.00 1007.6
20260509044416 0 0.0 0.0 0.00 0.00 0.00 1007.6
20260509043913 0 0.0 0.0 0.00 0.00 0.00 1007.7
20260509043408 0 0.0 0.0 0.00 0.00 0.00 1007.7
20260509042904 0 0.0 0.0 0.00 0.00 0.00 1007.5
20260509042402 0 0.0 0.0 0.00 0.00 0.00 1007.5
20260509041858 0 0.0 0.0 0.00 0.00 0.00 1007.5
20260509041354 73 72 1.0 1.0 0.00 0.00 0.00 95 1007.6
20260509040853 73 72 1.0 1.0 0.00 0.00 0.00 95 1007.4
20260509040351 73 122 1.0 2.0 0.00 0.00 0.00 95 1007.5
20260509035847 73 122 1.0 2.0 0.00 0.00 0.00 95 1007.5
20260509035344 0 0.0 0.0 0.00 0.00 0.00 1007.3
20260509034840 0 0.0 0.0 0.00 0.00 0.00 1007.2
20260509034338 0 0.0 0.0 0.00 0.00 0.00 1007.2
20260509033835 0 0.0 0.0 0.00 0.00 0.00 1007.3
20260509033332 73 202 1.0 1.0 0.00 0.00 0.00 95 1007.4
20260509032829 73 202 1.0 1.0 0.00 0.00 0.00 95 1007.2
20260509032326 0 0.0 0.0 0.00 0.00 0.00 1007.3
20260509031824 0 0.0 0.0 0.00 0.00 0.00 1007.5
20260509031321 73 160 2.0 2.0 0.00 0.00 0.00 95 1007.4
20260509030819 73 160 2.0 2.0 0.00 0.00 0.00 95 1007.1
20260509030316 73 174 1.0 1.0 0.00 0.00 0.00 95 1007.0
20260509025813 73 174 1.0 1.0 0.00 0.00 0.00 95 1007.2
20260509025308 73 132 1.0 1.0 0.00 0.00 0.00 95 1006.9
20260509024804 73 75 0.0 0.0 0.00 0.00 0.00 94 1006.9
20260509024300 73 144 0.0 0.0 0.00 0.00 0.00 94 1006.8
20260509023757 73 144 0.0 0.0 0.00 0.00 0.00 94 1006.7
20260509023255 73 192 1.0 2.0 0.00 0.00 0.00 94 1006.8
20260509022750 73 192 1.0 2.0 0.00 0.00 0.00 94 1006.8
20260509022249 73 234 3.0 3.0 0.00 0.00 0.00 94 1006.3
20260509021745 73 119 0.0 0.0 0.00 0.00 0.00 94 1006.5
20260509021242 73 119 0.0 0.0 0.00 0.00 0.00 94 1006.4
20260509020740 73 116 1.0 1.0 0.00 0.00 0.00 94 1006.8
20260509020238 73 135 1.0 1.0 0.00 0.00 0.00 94 1006.6
20260509015735 73 91 0.0 0.0 0.00 0.00 0.00 94 1006.6
20260509015234 73 89 1.0 1.0 0.00 0.00 0.00 94 1006.5
20260509014729 73 90 0.0 1.0 0.00 0.00 0.00 94 1006.5
20260509014227 73 154 1.0 2.0 0.00 0.00 0.00 93 1006.4
20260509013723 73 116 1.0 1.0 0.00 0.00 0.00 93 1006.3
20260509013219 73 60 2.0 2.0 0.00 0.00 0.00 93 1006.8
20260509012716 73 111 1.0 1.0 0.00 0.00 0.00 93 1006.8
20260509012212 73 114 0.0 0.0 0.00 0.00 0.00 93 1006.7
20260509011710 73 219 2.0 3.0 0.00 0.00 0.00 93 1006.6
20260509011208 73 216 2.0 2.0 0.00 0.00 0.00 93 1006.4
20260509010705 73 57 2.0 2.0 0.00 0.00 0.00 93 1006.3
20260509010201 73 123 1.0 1.0 0.00 0.00 0.00 93 1006.3
20260509005659 73 59 1.0 1.0 0.00 0.00 0.00 93 1006.3
20260509005156 73 91 1.0 2.0 0.00 0.00 0.00 93 1006.0
20260509004651 74 151 1.0 2.0 0.00 0.00 0.00 93 1006.1
20260509004148 74 141 0.0 1.0 0.00 0.00 0.00 92 1006.1
20260509003647 74 65 1.0 1.0 0.00 0.00 0.00 92 1006.0
20260509003144 74 152 5.0 6.0 0.00 0.00 0.00 92 1006.0
20260509002641 74 136 1.0 1.0 0.00 0.00 0.00 92 1006.5
20260509002138 74 106 1.0 2.0 0.00 0.00 0.00 91 1006.5
20260509001636 74 162 0.0 1.0 0.00 0.00 0.00 91 1006.5
20260509001131 75 180 1.0 2.0 0.00 0.00 0.00 90 1006.8
20260509000630 75 117 1.0 1.0 0.00 0.00 0.00 90 1006.6
20260509000126 75 159 3.0 5.0 0.00 0.00 0.00 90 1006.4
20260508235624 75 97 2.0 2.0 0.00 0.00 0.00 89 1006.4
20260508235120 75 209 3.0 5.0 0.00 0.00 0.00 88 1006.5
20260508234617 75 182 2.0 2.0 0.00 0.00 0.00 88 1006.5
20260508234113 76 159 1.0 1.0 0.00 0.00 0.00 87 1006.6
20260508233613 76 122 1.0 1.0 0.00 0.00 0.00 87 1006.4
20260508233110 76 213 1.0 2.0 0.00 0.00 0.00 87 1006.4
20260508232607 76 237 2.0 3.0 0.00 0.00 0.00 87 1006.4
20260508232104 76 223 2.0 3.0 0.00 0.00 0.00 86 1006.4
20260508231602 77 170 2.0 2.0 0.00 0.00 0.00 86 1006.6
20260508231058 76 76 0.0 0.0 0.00 0.00 0.00 86 1006.7
20260508230555 77 140 1.0 1.0 0.00 0.00 0.00 86 1006.3
20260508230051 77 225 2.0 3.0 0.00 0.00 0.00 86 1006.5
20260508225549 77 100 1.0 1.0 0.00 0.00 0.00 86 1006.4
20260508225045 77 101 2.0 2.0 0.00 0.00 0.00 86 1006.2
20260508224544 77 89 0.0 1.0 0.00 0.00 0.00 86 1006.2
20260508224041 77 133 1.0 1.0 0.00 0.00 0.00 86 1006.5
20260508223538 77 177 1.0 1.0 0.00 0.00 0.00 85 1006.3